User: anonymous   Login
Location: Newark
(50.4348°N, 30.5552°E)
Time: 19:38:55
(UTC+00:00)
Language:

A-11 Canister half - Orbit

View from above orbital plane
View from above orbital plane
View from above satellite
View from above satellite

Ground track
Ground track

The orbit data is extracted from the following two-line orbital elements,

1    51U 60009C   20025.51486704 -.00000117 +00000-0 -30026-3 0  9990
2    51 047.2137 072.7253 0104343 096.3481 264.9203 12.18271050646542
Epoch (UTC): 25 January 2020 12:21:24
Eccentricity: 0.0104343
inclination: 47.2137°
perigee height: 1517 km
apogee height: 1683 km
right ascension of ascending node: 72.7253°
argument of perigee: 96.3481°
revolutions per day: 12.18271050
mean anomaly at epoch: 264.9203°
orbit number at epoch: 64654

The dashed part of the orbit path shows where the satellite is in the earth's shadow,  

DLR